Regional Weather Roundup
Issued by NWS Jackson, KY

Home | Current Version | Previous Version | Text Only | Print | Product List | Glossary Off
Versions: 1 2 3 4 5 6 7 8 9 10 11 12 13 14 15 16 17 18 19 20 21 22 23 24 25 26 27 28 29 30 31 32 33 34 35 36 37 38 39 40 41 42 43 44 45 46 47 48 49 50

000
ASUS43 KJKL 010311
RWRJKL

EAST KENTUCKY HOURLY WEATHER ROUNDUP
NATIONAL WEATHER SERVICE JACKSON KY
1100 PM EDT TUE SEP 30 2014

NOTE: "FAIR" INDICATES FEW OR NO CLOUDS BELOW 12,000 FEET WITH
NO SIGNIFICANT WEATHER AND/OR OBSTRUCTIONS TO VISIBILITY.

* THESE REPORTS ARE NOT UNDER NWS QUALITY CONTROL AND MAY NOT
  REPORT WEATHER SUCH AS PRECIPITATION AND FOG.

KYZ079-080-083-085-087-088-110-112-115-119-120-010400
...EASTERN KENTUCKY...

CITY           SKY/WX    TMP DP  RH WIND       PRES   REMARKS
JACKSON        CLEAR     66  57  72 CALM      29.96R
LONDON         PTCLDY    62  58  86 CALM      29.96S
SOMERSET*      MOCLDY    61  59  94 CALM      29.96S
MONTICELLO*    CLEAR     57  56  97 CALM      29.97R
MIDDLESBORO*   CLEAR     58  56  94 CALM      29.98S
HARLAN APT*    CLEAR     59  59 100 CALM      29.99S
BLACK MTN*       N/A     59  48  67 CALM        N/A
PIKEVILLE APT* MOCLDY    66  57  72 CALM      29.95S
BIG SANDY*     CLOUDY    67  60  80 N6        29.95R
MOREHEAD APT*  MOCLDY    64  59  82 N3        29.98R
$$

KYZ035-036-041-042-044-050-067-078-099-010400
...CENTRAL KENTUCKY...

CITY           SKY/WX    TMP DP  RH WIND       PRES   REMARKS
MT STERLING*   CLEAR     64  61  88 NE3       29.97R
FLEMING/MASON* CLOUDY    61  57  88 NE6       29.98R
DANVILLE*      CLEAR     61  55  82 CALM      29.96R
RICHMOND*      CLEAR     63  54  72 CALM      29.94R
LEXINGTON      CLEAR     67  59  75 NE8       29.95R
FRANKFORT      CLEAR     67  59  75 CALM      29.94R
$$

KYZ091>093-OHZ055-061-077-WVZ005-015-034-035-042-010400
...SOUTHERN OHIO/WEST VIRGINIA...

CITY           SKY/WX    TMP DP  RH WIND       PRES   REMARKS
COVINGTON      PTCLDY    61  52  72 NE12      29.97R
COLUMBUS       PTCLDY    52  49  89 NE3       29.97S
DAYTON         CLEAR     50  45  83 N6        30.01S
WILMINGTON     CLEAR     48  45  89 NE6       29.99R
HUNTINGTON     PTCLDY    66  59  78 N6        29.94R
CHARLESTON     PTCLDY    66  58  75 NE5       29.94R
PINEVILLE*     CLEAR     58  58 100 MISG      30.02S FOG
BECKLEY        CLOUDY    60  53  77 S5        29.99S
BLUEFIELD      CLEAR     62  51  67 SW3       30.02S
$$

VAZ002-007-008-TNZ017-027-036-066-071-010400
...SOUTHWEST VIRGINIA/EAST TENNESSEE...

CITY           SKY/WX    TMP DP  RH WIND       PRES   REMARKS
WISE*          CLEAR     59  50  72 S3        30.03S
JONESVILLE*    CLEAR     55  55 100 CALM      30.00R
ABINGDON*      CLEAR     58  56  90 CALM      30.00R
BRISTOL        CLEAR     59  55  87 CALM      29.97R
KNOXVILLE      PTCLDY    66  59  78 CALM      29.94S
OAK RIDGE      CLEAR     62  60  93 CALM      29.97R
CROSSVILLE     CLEAR     60  55  83 CALM      30.00R
NASHVILLE      MOCLDY    68  55  63 CALM      29.93R
$$

...KEY TO REMARKS...
VSB - VISIBILITY IN MILES
WCI - WIND CHILL INDEX
HX  - HEAT INDEX

$$



USA.gov is the U.S. government's official web portal to all federal, state and local government web resources and services.